Location: Meanaryar
(48.4161°N, 4.7315°W)
Time: 08:56:39
(UTC+00:00)

Cosmos 1092 Rocket - Pass Details

Date: 24 January 2021
Orbit: 954 x 995 km, 83.0° (Epoch: 02 March)

Event Time Altitude Azimuth Distance (km) Brightness Sun altitude
Rises 06:44:16 0° 345° (NNW) 3,645 6.7 -12.1°
Reaches altitude 10° 06:46:53 10° 339° (NNW) 2,696 6.0 -11.6°
Maximum altitude 06:52:34 41° 271° (W) 1,368 4.3 -10.7°
Drops below altitude 10° 06:58:15 10° 204° (SSW) 2,694 6.3 -9.8°
Sets 07:00:53 0° 197° (SSW) 3,642 7.0 -9.4°
